Location: Croydon
(51.3762°N, 0.0982°W)
Time: 19:05:36
(UTC+00:00)

Envisat - Pass Details

Date: 22 February 2019
Orbit: 764 x 766 km, 98.2° (Epoch: 19 March)

Event Time Altitude Azimuth Distance (km) Brightness Sun altitude
Rises 06:19:00 0° 26° (NNE) 3,245 6.5 -7.2°
Reaches altitude 10° 06:22:03 10° 45° (NE) 2,313 6.0 -6.8°
Maximum altitude 06:25:31 18° 88° (E) 1,804 6.3 -6.2°
Drops below altitude 10° 06:28:58 10° 131° (SE) 2,300 6.5 -5.7°
Sets 06:31:59 0° 150° (SSE) 3,220 6.9 -5.2°
